Regional Weather Roundup
Issued by NWS

Home | Current Version | Previous Version | Text Only | Print | Product List | Glossary On
Versions: 1 2 3 4 5 6 7 8 9 10 11 12 13 14 15 16 17 18 19 20 21 22 23 24 25 26 27 28 29 30 31 32 33 34 35 36 37 38 39 40 41 42 43 44 45 46 47 48 49 50
000
ASUS45 KABQ 261110
RWRNM
NEW MEXICO REGIONAL WEATHER ROUNDUP
NATIONAL WEATHER SERVICE ALBUQUERQUE NM
500 AM MDT TUE SEP 26 2017

NOTE: "FAIR" MEANS FEW OR NO CLOUDS BELOW 12,000 FEET AGL WITH NO
       SIGNIFICANT WEATHER OR OBSTRUCTIONS TO VISION.

      THIS PRODUCT IS RELEASED AS TWO VERSIONS.  ONE VERSION NEAR
      THE TOP OF THE HOUR CONTAINING PRELIMINARY DATA FROM ALBUQUERQUE
      AND OTHER STATIONS.  A FINAL VERSION WITH ADDITIONAL DATA IS
      ISSUED ABOUT 10 MINUTES AFTER THE HOUR.

NMZ501-503-504-510>518-261200-
NORTHWEST PLATEAU/NORTHCENTRAL MOUNTAINS

CITY           SKY/WX    TMP DP  RH WIND       PRES   REMARKS
FARMINGTON     FAIR      37  19  48 E6        30.06S WCI  32
LOS ALAMOS     FAIR      51  42  73 SW6       30.14S
SANTA FE       CLOUDY    52  47  83 SE5       30.11R
TAOS           FAIR      34  22  61 N8        30.17R WCI  27
ANGEL FIRE     FAIR      32  32  98 CALM      30.22S

$$
NMZ402-403-502-505>509-261200-
WESTCENTRAL MOUNTAINS/SOUTHWEST MOUNTAINS

CITY           SKY/WX    TMP DP  RH WIND       PRES   REMARKS
GALLUP         FAIR      36  15  42 E5        30.08S WCI  32
GRANTS         CLOUDY    39  12  32 NW8       30.09S WCI  34
SILVER CITY    FAIR      48  25  41 N10       29.98R

$$
NMZ407-409-411-412-261200-
SOUTHERN DESERTS

CITY           SKY/WX    TMP DP  RH WIND       PRES   REMARKS
DEMING         FAIR      49  26  41 CALM      29.93R
LAS CRUCES     FAIR      55  23  28 NE5       29.94R
HOLLOMAN AFB   FAIR      52  25  35 N5        29.95R
ALAMOGORDO     FAIR      57  23  26 N6        29.94S
T OR C         FAIR      60  36  40 N7        29.96R

$$
NMZ519>523-261200-
CENTRAL VALLEYS/CENTRAL HIGHLANDS

CITY           SKY/WX    TMP DP  RH WIND       PRES   REMARKS
ALBUQUERQUE    FAIR      58  48  69 E22G29    30.02S
MORIARTY ARPT  CLOUDY    54  50  87 E12       30.13R
CLINES CORNERS FOG       48  47  96 E17       30.15R VSB 1/4
BELEN          FAIR      52  34  50 W12       30.02R
SOCORRO        FAIR      57  43  59 CALM      30.01R

$$
NMZ524>526-539-540-261200-
SOUTHCENTRAL MOUNTAINS

CITY           SKY/WX    TMP DP  RH WIND       PRES   REMARKS
RUIDOSO        CLOUDY    50  46  87 SE6       30.14S

$$
NMZ527>531-261200-
NORTHEAST HIGHLANDS/NORTHEAST PLAINS

CITY           SKY/WX    TMP DP  RH WIND       PRES   REMARKS
LAS VEGAS      FOG       47  47 100 E9        30.17R VSB 1/2
RATON          NOT AVBL
CLAYTON        RAIN      47  47 100 N12       30.15R

$$
NMZ532>537-261200-
EASTCENTRAL PLAINS

CITY           SKY/WX    TMP DP  RH WIND       PRES   REMARKS
SANTA ROSA     CLOUDY    52  51  98 NE13      30.10R
TUCUMCARI      CLOUDY    55  53  93 NE15      30.08R
CANNON AFB     NOT AVBL
CLOVIS AIRPORT RAIN      55  54  96 NE15      30.07F

$$
NMZ028-029-538-261200-
SOUTHEAST PLAINS

CITY           SKY/WX    TMP DP  RH WIND       PRES   REMARKS
ROSWELL        LGT RAIN  61  59  93 NE10      30.00R
ARTESIA        CLOUDY    64  64 100 N12       29.97R
CARLSBAD       CLOUDY    67  67 100 E7        29.93R
HOBBS          CLOUDY    63  63 100 E9        29.98R


$$



USA.gov is the U.S. government's official web portal to all federal, state and local government web resources and services.